Flag for Switzerland Weather past 2 weeks in La-Chaux-de-Fonds, Neuchâtel, Switzerland

Now
59 °F

Clear.


Feels Like: 59 °F
Forecast: 53 / 63 °F
Wind: No wind

Location: Les Eplatures

Current Time: Aug 31, 2015 at 5:18:28 AM

Latest Report: Aug 31, 2015 at 4:50 AM


Visibility: 10 mi

Pressure: 30.15 "Hg (26.78 "Hg at 1000m altitude)

Humidity: 77%

Dew point: 52 °F

Location of La-Chaux-de-FondsLocation

Historic Weather in La-Chaux-de-Fonds — Graph

°F

La-Chaux-de-Fonds temperature yesterday

Maximum temperature yesterday: 82 °F (at 3:20 PM)
Minimum temperature yesterday: 57 °F (at 6:50 AM)
Average temperature yesterday: 70 °F

Past Weeks' High & Low Weather Summary

 TemperatureHumidityPressure
High82 °F (Aug 30, 3:20 PM)100% (Aug 16, 6:50 AM)30.33 "Hg (Aug 16, 6:50 AM)
Low41 °F (Aug 20, 4:20 AM)36% (Aug 27, 12:20 PM)29.77 "Hg (Aug 24, 5:50 AM)
Average59 °F73%30.11 "Hg
* Reported Aug 16 4:20 AM — Aug 31 4:20 AM, La-Chaux-de-Fonds, Weather by CustomWeather, © 2015

Note: Actual official high and low records may vary slightly from our data, if they occured in-between our weather recording intervals... More about our weather records

Advertising

La-Chaux-de-Fonds weather history for previous 24 hours

 ConditionsComfort  
Time TempWeatherWind HumidityBarometerVisibility
4:20 AM
Mon, Aug 31
59 °FClear.No wind77%30.15 "HgN/A
3:50 AM59 °FClear.1 mph77%30.18 "HgN/A
3:20 AM59 °FClear.1 mph77%30.15 "HgN/A
2:50 AM59 °FClear.2 mph77%30.18 "HgN/A
2:20 AM59 °FClear.2 mph82%30.18 "Hg10 mi
1:50 AM61 °FClear.2 mph77%30.18 "Hg10 mi
1:20 AM59 °FClear.No wind82%30.18 "Hg10 mi
12:50 AM61 °FClear.1 mph83%30.18 "Hg10 mi
12:20 AM61 °FClear.1 mph83%30.21 "Hg10 mi
11:20 PM
Sun, Aug 30
63 °FClear.No wind83%30.21 "Hg10 mi
10:50 PM63 °FClear.1 mph83%30.21 "Hg10 mi
10:20 PM64 °FClear.1 mph73%30.21 "Hg10 mi
9:20 PM66 °FSunny.1 mph64%30.21 "Hg10 mi
8:50 PM68 °FSunny.1 mph64%30.21 "Hg10 mi
8:20 PM68 °FSunny.1 mph64%30.21 "Hg10 mi
7:50 PM75 °FPassing clouds.3 mph47%30.18 "HgN/A
7:20 PM75 °FSunny.2 mph54%30.18 "Hg10 mi
6:50 PM79 °FSunny.3 mph48%30.18 "Hg10 mi
6:20 PM81 °FPassing clouds.3 mph42%30.18 "HgN/A
5:50 PM81 °FSunny.2 mph45%30.18 "Hg10 mi
5:20 PM81 °FSunny.2 mph42%30.18 "Hg10 mi
4:50 PM81 °FPassing clouds.6 mph42%30.18 "HgN/A
4:20 PM81 °FPassing clouds.6 mph39%30.21 "HgN/A
3:50 PM81 °FSunny.5 mph42%30.21 "Hg10 mi
3:20 PM82 °FPassing clouds.6 mph37%30.21 "HgN/A
2:50 PM81 °FPassing clouds.5 mph45%30.21 "HgN/A
2:20 PM81 °FPassing clouds.5 mph48%30.24 "HgN/A
1:50 PM81 °FPassing clouds.5 mph48%30.24 "HgN/A
1:20 PM81 °FPassing clouds.5 mph51%30.24 "HgN/A
12:50 PM79 °FPassing clouds.5 mph51%30.24 "HgN/A
12:20 PM79 °FSunny.2 mph54%30.27 "Hg10 mi
11:50 AM79 °FPassing clouds.5 mph51%30.27 "HgN/A
11:20 AM77 °FPassing clouds.3 mph51%30.27 "HgN/A
10:50 AM77 °FSunny.1 mph51%30.27 "Hg10 mi
10:20 AM75 °FSunny.1 mph54%30.27 "Hg10 mi
9:50 AM73 °FSunny.2 mph57%30.27 "Hg10 mi
9:20 AM70 °FSunny.1 mph64%30.27 "Hg10 mi
8:50 AM64 °FSunny.No wind73%30.27 "Hg10 mi
8:20 AM63 °FClear.No wind77%30.27 "Hg10 mi
7:50 AM59 °FClear.No wind82%30.27 "Hg10 mi
7:20 AM59 °FClear.No wind82%30.27 "Hg10 mi
6:50 AM57 °FClear.2 mph82%30.27 "Hg10 mi
6:20 AM59 °FClear.No wind77%30.24 "Hg10 mi
5:50 AM59 °FCool.1 mph82%30.27 "HgN/A
5:20 AM63 °FClear.No wind77%30.24 "Hg10 mi
Weather by CustomWeather, © 2015

See weather overviewHow to use our weather pages